Location: Newark
(41.6500°N, 71.4833°W)
Time: 04:27:56
(UTC+00:00)

A-11 Canister half - Pass Details

Date: 21 January 2020
Orbit: 1517 x 1683 km, 47.2° (Epoch: 17 February)

Event Time Altitude Azimuth Distance (km) Brightness Sun altitude
Rises 06:08:14 0° 245° (WSW) 4,712 - -63.6°
Reaches altitude 10° 06:11:18 10° 246° (WSW) 3,713 - -63.2°
Maximum altitude 06:20:41 85° 336° (NNW) 1,528 - -62.0°
Exits shadow 06:29:20 13° 65° (ENE) 3,476 11.1 -60.8°
Drops below altitude 10° 06:29:59 10° 66° (ENE) 3,684 11.3 -60.8°
Sets 06:33:01 0° 67° (ENE) 4,673 12.0 -60.3°
